This is the latest recevied weather packets stored in our database for station/object W8KJR. If no packets are shown the sender has not sent any weather packets the latest 10 day(s).
| Time | Temp. | Humidity | Pressure | Rain* | Wind** | Luminosity | Snow |
|---|---|---|---|---|---|---|---|
| 1777872755 | 11.67° C | 62% | 1009.2 hPa | 0 mm | - | - | - |
| 1777871853 | 11.67° C | 63% | 1009.6 hPa | 0 mm | - | - | - |
| 1777870949 | 11.11° C | 65% | 1009.8 hPa | 0 mm | - | - | - |
| 1777870045 | 10.56° C | 68% | 1009.8 hPa | 0 mm | - | - | - |
| 1777869142 | 10.56° C | 69% | 1009.8 hPa | 0 mm | - | - | - |
| 1777868238 | 10.56° C | 70% | 1010 hPa | 0 mm | - | - | - |
| 1777867334 | 10.56° C | 71% | 1010.1 hPa | 0 mm | - | - | - |
| 1777866430 | 10° C | 72% | 1010.2 hPa | 0 mm | - | - | - |
| 1777865528 | 10° C | 73% | 1010.2 hPa | 0 mm | - | - | - |
| 1777864625 | 10° C | 73% | 1010.6 hPa | 0 mm | - | - | - |
| 1777863721 | 9.44° C | 74% | 1010.5 hPa | 0 mm | - | - | - |
| 1777862817 | 9.44° C | 74% | 1010.6 hPa | 0 mm | - | - | - |
| 1777861917 | 9.44° C | 75% | 1010.7 hPa | 0 mm | - | - | - |
| 1777861014 | 9.44° C | 74% | 1010.8 hPa | 0 mm | - | - | - |
| 1777860109 | 9.44° C | 75% | 1010.9 hPa | 0 mm | - | - | - |
| 1777859210 | 10° C | 74% | 1010.9 hPa | 0 mm | - | - | - |
| 1777858308 | 10° C | 73% | 1010.9 hPa | 0 mm | - | - | - |
| 1777857405 | 10° C | 73% | 1011.1 hPa | 0 mm | - | - | - |
| 1777856505 | 10.56° C | 72% | 1011 hPa | 0 mm | - | - | - |
| 1777855603 | 10.56° C | 71% | 1011 hPa | 0 mm | - | - | - |
| 1777854699 | 10.56° C | 71% | 1011.2 hPa | 0 mm | - | - | - |
| 1777853797 | 10.56° C | 69% | 1011.2 hPa | 0 mm | - | - | - |
| 1777852893 | 11.11° C | 68% | 1011.1 hPa | 0 mm | - | - | - |
| 1777851991 | 11.11° C | 67% | 1011.3 hPa | 0 mm | - | - | - |
| 1777851087 | 11.11° C | 66% | 1011.8 hPa | 0 mm | - | - | - |
* Rain latest hour (hover to see other rain measurements)
** Current wind speed in m/s (hover to see current wind gust speed)